Wind_Speed
70 68 71 72 44 33 45 46 41 41 39 43 45 46 46 44 38 37 41 40 43 50 54 57 56 54 55 57 59 60 63 67 71 74 76 75 77 72 67 57 46 38 28 32 32 41 42 41 42 39 41 41 41 38
70 66 71 61 31 29 27 34 34 34 36 40 36 41 32 32 36 40 43 42 45 51 49 49 51 52 55 60 62 67 71 74 76 76 72 68 60 53 42 37 29 30 34 39 36 37 40 45 45 49 44 30 21 11
62 58 66 68 40 31 24 27 35 36 43 35 34 30 33 38 39 40 42 42 44 44 44 47 52 57 62 65 69 67 65 64 63 56 46 39 35 28 25 24 26 26 27 32 33 25 26 24 29 20 7 8 9 8
44 52 65 66 59 47 46 45 38 34 30 30 31 33 33 31 35 36 37 42 42 45 50 55 58 56 54 56 56 50 48 45 40 32 24 23 23 22 18 17 14 14 9 10 8 6 9 11 3 4 6 6 2 4
29 38 39 43 44 45 41 28 28 33 32 32 29 29 32 35 35 35 38 43 47 46 44 43 45 41 42 36 33 31 30 26 23 21 21 19 11 9 10 10 8 8 8 7 5 4 1 2 7 8 5 2 4 5
24 30 37 36 39 39 39 35 34 35 35 33 34 33 30 31 34 39 39 33 29 31 33 31 28 24 21 17 17 18 18 15 11 9 8 11 9 7 6 6 6 5 6 6 5 2 2 3 3 4 3 5 3 2
35 31 33 31 30 29 33 28 30 31 27 27 27 27 30 30 24 22 23 23 23 26 25 21 18 12 11 12 12 12 14 17 15 13 12 5 6 2 4 6 6 7 7 6 4 2 3 4 4 3 3 2 3 4
28 24 20 22 24 28 26 31 20 19 23 24 23 17 14 16 18 18 18 18 20 19 14 10 7 7 9 10 5 8 8 12 11 8 4 3 2 5 5 4 3 4 4 4 3 3 3 3 4 6 7 7 8 8
17 16 21 28 31 33 23 17 19 14 10 9 8 9 12 13 12 13 13 15 13 9 7 7 6 5 5 6 2 6 7 10 8 7 5 5 5 5 6 7 8 9 7 7 7 8 8 7 8 10 11 12 13 14
22 22 21 16 15 17 12 10 10 10 9 6 6 7 8 9 9 10 9 8 8 9 10 8 10 10 11 10 10 10 13 13 14 15 13 11 14 14 14 14 14 16 16 15 14 14 15 16 18 20 21 21 21 20
13 14 14 14 14 14 12 10 8 6 2 2 3 4 5 5 6 7 8 8 9 10 12 13 14 16 17 19 20 20 21 20 20 21 22 19 19 23 22 22 23 23 23 23 22 23 25 25 25 26 27 27 28 29
19 18 17 16 14 12 9 8 7 5 4 4 5 6 7 8 8 9 9 11 12 13 15 17 18 20 22 23 24 25 26 26 26 29 30 28 27 28 26 28 30 31 31 31 33 34 35 36 36 36 36 36 35 36
16 14 12 10 8 7 6 6 4 2 5 6 7 8 10 10 10 11 12 13 14 16 17 19 20 21 21 22 22 23 23 23 25 26 26 26 24 27 29 28 30 33 35 38 39 39 40 41 41 42 43 42 41 43
10 9 8 7 6 5 5 4 4 4 6 8 9 10 11 12 12 12 12 13 14 16 18 20 21 21 22 22 22 22 23 23 23 24 18 19 22 22 25 31 30 34 40 40 42 44 45 46 47 50 51 51 50 45
7 7 7 6 7 7 7 6 5 6 8 10 12 12 12 12 11 11 13 15 17 19 21 21 22 22 23 24 24 26 26 26 21 18 22 25 26 28 32 33 41 46 45 47 50 52 53 55 55 54 56 54 51 49
4 4 4 5 5 6 7 9 10 12 12 12 11 11 11 12 13 13 15 17 19 21 22 22 23 24 23 25 25 27 27 21 25 28 31 34 38 41 43 45 48 51 55 56 58 58 59 59 58 58 58 59 57 55
3 4 5 6 8 9 9 10 11 11 12 12 12 12 12 12 13 14 16 18 20 22 22 23 25 26 28 29 29 31 34 33 32 35 40 42 45 46 46 49 51 53 55 57 58 59 60 61 60 60 59 58 58 57
5 4 4 5 6 6 8 9 9 9 10 11 12 12 12 13 14 14 16 19 21 22 23 24 26 27 31 33 34 35 37 39 41 43 46 48 50 52 55 56 57 59 60 60 60 61 60 60 60 60 60 59 58 56
7 7 6 6 5 5 5 5 7 8 9 11 11 12 12 13 14 16 18 19 20 21 23 26 29 30 32 34 36 39 41 42 43 46 50 53 55 57 58 57 58 58 58 57 57 57 56 56 56 56 56 56 55 55
8 9 8 7 6 7 7 8 7 7 8 10 11 11 12 14 16 17 19 19 20 21 23 25 26 30 33 35 39 42 43 45 47 49 51 54 56 56 56 56 56 56 56 57 56 57 58 59 60 60 60 59 58 58
9 10 10 10 9 8 8 8 9 8 9 9 10 11 13 14 16 17 19 20 21 22 24 27 28 32 35 37 40 43 45 48 50 53 57 58 56 55 55 56 57 59 60 61 62 63 63 64 64 63 64 64 64 64
9 10 11 10 10 10 9 9 9 9 10 10 10 12 13 14 16 18 20 22 23 25 26 27 32 35 37 40 43 45 47 50 53 56 61 59 56 56 58 61 63 62 61 59 57 55 52 52 53 53 53 53 54 54
10 10 11 11 12 12 11 10 10 10 11 11 12 14 15 15 16 18 20 21 22 26 28 31 34 37 41 44 46 48 51 54 56 59 57 56 59 63 64 59 54 51 48 46 45 44 44 43 45 46 46 47 46 45
11 12 12 13 13 13 14 13 13 13 13 12 13 15 16 18 19 20 22 23 24 26 30 33 37 41 44 47 50 51 53 56 59 59 59 62 63 57 51 45 40 38 38 36 36 35 34 35 35 34 35 35 35 35
12 13 13 14 15 15 15 16 15 16 17 17 17 19 19 20 21 22 25 24 26 29 32 36 40 43 47 49 52 54 56 57 57 59 63 61 54 44 35 35 37 39 38 35 32 30 29 28 28 27 26 24 22 20
12 13 14 15 15 16 17 17 18 18 19 19 20 21 21 22 23 26 28 29 29 31 34 38 42 47 50 51 53 55 55 56 58 62 61 53 42 35 35 33 32 30 30 30 27 25 25 26 26 25 24 22 19 16
14 14 15 15 16 17 18 18 19 20 20 20 22 23 24 25 25 27 30 32 33 34 35 39 45 51 53 54 54 54 54 57 60 60 52 41 37 36 35 32 29 28 27 27 26 25 24 24 23 22 21 20 18 16
17 16 17 17 17 18 18 19 20 20 21 22 23 24 26 27 29 31 32 34 36 37 38 42 47 52 54 54 53 53 54 58 59 53 41 38 38 36 34 32 29 27 26 24 23 22 21 20 19 18 17 16 16 17
21 20 19 19 18 18 18 19 20 21 22 23 24 25 26 27 29 31 33 34 36 36 39 43 47 53 54 53 52 52 55 58 57 45 36 36 34 32 31 30 28 25 24 23 21 19 18 17 17 16 15 14 15 16
26 23 20 20 19 19 19 19 20 21 22 23 24 25 26 27 29 32 33 33 35 35 39 43 49 54 56 54 52 52 56 58 54 40 36 34 31 30 30 29 27 23 21 20 19 18 16 15 13 12 13 14 15 16
29 27 22 21 21 22 21 20 20 21 22 23 24 26 27 27 29 32 33 34 35 35 38 42 49 55 58 56 53 53 57 58 52 39 37 34 32 31 30 28 24 21 19 18 17 16 15 14 13 13 13 14 15 16
35 30 26 23 21 23 22 21 20 20 21 22 24 25 27 28 29 32 33 33 34 35 38 42 48 54 58 57 53 53 57 58 52 39 36 32 30 29 28 25 22 20 19 19 18 17 17 15 14 13 13 14 15 15
26 27 27 26 26 26 25 22 21 21 21 21 23 25 26 27 29 31 32 33 35 36 37 41 47 52 57 58 55 53 55 57 51 39 34 31 28 27 25 22 20 20 20 20 19 19 18 17 15 14 13 13 13 14
Wind_Direction
210 212 207 213 229 232 234 239 249 260 266 263 266 259 258 261 265 271 276 276 278 278 279 283 286 285 284 286 288 291 289 287 286 286 287 290 290 289 289 290 291 290 275 270 258 260 270 274 274 268 265 271 270 273
212 211 210 214 202 222 243 259 256 255 241 242 256 258 253 265 270 270 270 272 278 286 285 287 287 288 285 284 286 287 287 287 288 289 290 291 292 294 294 294 279 270 271 275 272 271 268 270 270 273 271 272 260 241
217 215 215 218 219 205 213 262 252 241 236 245 257 261 265 265 265 270 276 283 286 286 287 287 283 284 285 286 286 287 289 292 294 296 297 296 296 297 303 298 290 284 277 273 278 282 286 278 272 292 161 179 199 216
218 223 215 224 231 240 270 265 246 246 242 249 262 267 271 276 279 283 287 288 286 286 282 285 286 286 286 287 289 295 300 302 304 304 306 307 312 316 318 320 319 322 334 324 319 290 306 296 93 89 131 135 174 294
214 222 224 228 236 252 242 230 242 248 253 256 260 268 277 282 278 279 279 279 279 281 283 282 284 287 289 294 302 307 309 311 308 304 309 318 342 30 39 32 37 19 31 59 61 44 319 194 125 115 92 16 278 244
179 196 199 214 233 240 225 229 247 247 263 266 271 272 276 275 276 275 277 277 281 286 288 288 285 288 297 309 324 332 335 337 337 347 47 66 94 360 350 338 354 354 3 9 54 71 94 105 78 11 309 272 255 298
186 202 209 213 216 236 239 250 255 256 260 267 262 266 272 277 276 277 283 289 292 290 285 287 286 302 341 347 6 25 60 63 57 48 49 66 337 306 310 331 345 2 23 26 35 20 294 300 300 282 268 274 289 304
196 202 207 223 234 236 245 250 244 253 256 266 273 274 274 280 283 282 286 287 286 285 283 290 314 336 1 13 34 42 33 21 27 40 25 7 347 338 316 346 356 346 336 337 326 309 306 299 297 294 299 300 300 301
200 215 232 247 244 243 237 244 253 249 242 248 256 260 264 273 279 285 283 285 292 292 300 309 328 326 348 6 318 352 348 345 346 346 318 319 299 298 296 275 291 300 300 308 313 311 303 303 297 296 297 296 296 295
220 212 207 216 228 231 193 182 185 176 186 198 247 265 273 290 293 300 310 321 331 335 338 312 313 314 320 322 320 305 299 303 310 309 298 289 293 292 293 291 289 288 290 288 286 286 286 286 287 288 289 291 286 284
193 191 180 166 155 141 149 171 157 131 140 268 302 321 332 327 333 341 343 344 341 338 332 323 315 309 306 304 302 299 296 295 293 290 288 289 283 286 290 290 290 289 288 283 282 287 289 290 290 289 287 284 282 282
133 133 133 134 135 138 129 113 101 84 68 49 23 358 356 354 346 342 345 338 337 329 321 315 311 307 305 303 302 302 301 300 297 291 289 289 286 284 283 281 284 283 283 281 281 283 286 288 288 286 284 283 283 284
116 114 110 103 95 85 81 82 85 84 44 18 11 359 349 341 341 342 337 334 332 328 325 320 319 316 315 314 310 307 306 304 301 302 302 296 288 288 290 288 284 280 281 283 283 283 283 283 284 285 282 280 281 282
98 95 86 73 69 64 58 54 49 42 13 359 353 347 339 332 327 326 324 324 322 322 320 318 317 316 315 315 315 315 312 310 311 309 296 285 283 268 268 272 266 282 290 287 286 284 284 287 289 290 291 288 287 285
62 51 40 28 18 15 9 2 345 332 325 323 323 324 324 320 318 318 319 321 321 322 322 318 318 318 316 316 318 315 313 314 314 302 298 296 292 281 267 261 272 287 292 292 291 292 292 290 289 287 287 285 283 281
37 17 4 342 323 311 302 295 291 290 292 301 307 310 316 319 319 316 314 316 318 318 318 316 318 315 316 316 318 313 311 308 303 300 295 290 290 288 287 284 281 281 282 284 284 283 282 282 282 281 281 281 281 280
340 320 309 301 298 299 298 296 295 295 294 298 302 305 305 309 312 309 308 310 313 314 314 313 312 313 311 308 310 308 305 309 302 296 296 296 295 294 293 290 289 288 286 286 286 286 285 285 283 282 280 280 279 278
31 14 349 328 318 312 308 306 305 304 302 300 300 300 301 305 308 308 308 311 312 313 312 310 309 311 308 308 308 309 306 305 304 303 301 301 300 297 295 293 292 291 291 291 290 289 287 285 284 282 281 280 279 278
43 44 35 18 3 351 340 322 312 308 305 304 303 303 304 307 308 309 311 311 311 311 309 307 309 308 306 307 305 304 305 305 305 306 306 304 303 301 298 296 294 293 293 292 291 289 288 286 285 283 282 281 280 279
32 28 33 34 21 5 353 348 339 325 316 315 313 312 312 314 315 315 313 313 311 309 309 310 309 307 306 306 307 306 306 306 306 308 308 308 307 305 302 300 299 298 296 294 291 289 288 286 285 285 283 281 278 276
27 24 22 23 24 21 7 353 352 345 335 331 322 320 319 320 320 319 317 317 318 318 318 317 315 309 310 309 308 307 308 309 311 312 313 312 309 307 305 302 300 297 294 292 291 290 289 288 287 285 283 282 280 278
12 11 14 14 13 14 12 5 358 348 343 339 332 329 329 327 326 323 323 325 329 321 326 322 319 319 316 313 311 311 312 312 313 314 314 313 310 308 305 303 302 301 299 298 296 295 294 291 289 287 286 284 282 280
2 1 3 3 2 1 359 2 359 352 347 343 338 337 338 336 333 326 326 329 326 326 327 324 323 320 318 317 316 316 316 315 314 314 315 314 313 311 310 309 308 306 303 302 302 300 298 296 295 294 292 291 289 286
354 354 356 357 356 355 355 356 355 352 351 348 341 339 338 338 338 335 336 337 331 332 331 328 326 325 323 321 319 319 319 319 319 320 319 318 318 317 316 315 314 312 311 312 308 306 305 306 306 305 303 299 293 289
341 343 348 350 351 351 350 353 353 352 351 351 347 346 346 345 341 338 336 338 336 336 335 334 332 332 329 327 324 324 324 325 324 323 321 322 322 323 324 322 318 314 315 317 318 314 311 312 315 318 320 319 316 310
323 330 337 339 343 345 345 347 347 349 350 349 347 349 349 349 344 341 342 342 341 340 342 341 340 339 335 334 330 329 329 329 329 326 327 327 328 330 328 325 326 326 327 330 333 330 325 322 323 325 325 328 329 328
302 314 320 326 332 335 339 342 342 344 346 347 344 345 346 345 345 345 345 345 343 344 347 345 345 344 341 338 336 334 334 334 332 331 331 331 332 334 330 329 330 331 331 331 332 331 329 329 331 335 337 338 340 339
288 297 305 312 319 323 329 332 334 340 342 343 343 343 345 344 341 343 345 345 343 345 348 349 347 346 343 341 339 339 338 338 336 336 335 336 338 339 337 338 336 335 335 337 340 340 340 342 344 347 349 351 354 357
285 287 290 296 304 310 317 323 325 330 335 338 340 340 343 344 339 340 342 343 342 345 349 353 353 352 348 344 343 344 343 343 341 341 341 342 342 342 342 342 343 344 344 345 349 351 352 355 357 1 5 11 18 20
280 284 280 283 291 297 304 311 314 319 324 329 333 335 340 342 340 342 345 344 344 346 350 353 355 356 353 350 349 349 348 348 346 347 346 347 348 349 351 351 351 352 353 356 360 3 6 10 14 20 27 32 36 37
272 275 274 271 278 287 293 300 305 310 314 320 325 329 333 338 338 341 346 346 347 347 350 352 355 357 357 354 352 352 352 352 351 352 351 352 355 356 356 357 -0 3 5 10 14 18 22 25 30 35 39 43 47 51
266 268 263 260 269 280 291 292 297 302 308 312 317 322 328 332 335 338 343 346 347 346 349 352 355 358 359 358 356 355 355 356 355 355 355 355 357 0 3 6 12 16 21 25 28 31 32 34 38 43 47 51 55 56
260 259 253 252 262 273 282 290 291 295 301 306 310 317 323 328 331 335 339 344 347 347 348 351 355 358 360 1 360 358 358 359 358 356 357 359 2 5 10 16 22 27 30 32 34 36 38 39 41 43 47 55 60 58
Height
5468 5485 5501 5513 5519 5524 5534 5545 5550 5554 5560 5564 5567 5571 5573 5574 5573 5575 5575 5575 5575 5573 5570 5568 5566 5562 5558 5555 5551 5548 5543 5537 5531 5525 5518 5510 5503 5495 5487 5482 5479 5476 5473 5472 5472 5471 5469 5466 5462 5464 5463 5464 5463 5465
5466 5482 5495 5506 5512 5526 5533 5536 5542 5547 5554 5556 5560 5562 5562 5563 5564 5565 5565 5564 5562 5561 5557 5554 5551 5549 5544 5538 5535 5529 5522 5517 5511 5504 5498 5490 5485 5477 5473 5472 5471 5467 5465 5461 5461 5461 5462 5455 5452 5449 5450 5455 5455 5458
5465 5480 5493 5504 5511 5518 5522 5533 5539 5542 5546 5548 5551 5552 5553 5552 5552 5553 5552 5551 5549 5547 5543 5540 5536 5534 5530 5523 5516 5514 5504 5497 5492 5487 5482 5477 5472 5468 5466 5465 5459 5458 5455 5451 5450 5453 5449 5448 5446 5443 5443 5447 5451 5455
5468 5481 5493 5501 5509 5516 5525 5526 5533 5536 5539 5541 5541 5541 5541 5542 5542 5539 5539 5538 5538 5535 5531 5527 5522 5517 5513 5508 5502 5496 5490 5485 5480 5475 5472 5469 5465 5464 5461 5459 5454 5451 5448 5446 5445 5445 5445 5444 5443 5444 5446 5448 5450 5451
5469 5480 5490 5501 5512 5517 5518 5521 5526 5528 5527 5528 5531 5531 5530 5530 5529 5529 5530 5529 5527 5526 5520 5516 5511 5503 5499 5496 5491 5487 5481 5476 5473 5470 5466 5467 5464 5462 5461 5459 5456 5453 5449 5448 5446 5446 5445 5445 5445 5446 5447 5448 5450 5451
5470 5478 5487 5496 5502 5508 5512 5515 5517 5518 5522 5520 5519 5521 5519 5520 5521 5521 5520 5519 5514 5510 5507 5504 5502 5497 5492 5488 5485 5480 5475 5471 5470 5469 5466 5464 5466 5465 5463 5459 5457 5455 5453 5451 5450 5449 5448 5448 5448 5448 5449 5450 5450 5450
5466 5475 5484 5490 5495 5500 5505 5507 5510 5513 5509 5510 5511 5508 5507 5508 5509 5510 5508 5506 5503 5502 5500 5498 5497 5491 5486 5483 5480 5476 5475 5473 5471 5469 5467 5467 5466 5465 5463 5461 5459 5457 5455 5453 5452 5451 5450 5450 5449 5449 5449 5449 5448 5448
5463 5470 5475 5482 5487 5495 5496 5499 5497 5496 5498 5498 5497 5497 5498 5500 5502 5502 5502 5500 5499 5496 5494 5492 5492 5490 5484 5482 5482 5478 5475 5473 5472 5470 5469 5467 5466 5465 5463 5461 5460 5458 5457 5455 5453 5452 5452 5450 5450 5449 5448 5447 5447 5446
5461 5466 5472 5477 5482 5487 5487 5485 5487 5487 5489 5491 5493 5494 5498 5498 5497 5497 5497 5496 5493 5493 5490 5490 5490 5489 5485 5481 5481 5477 5474 5474 5473 5471 5469 5468 5465 5463 5463 5461 5459 5458 5456 5454 5452 5451 5450 5449 5448 5447 5446 5444 5443 5442
5463 5468 5472 5475 5477 5480 5478 5481 5485 5486 5489 5489 5491 5494 5493 5493 5493 5494 5491 5491 5489 5487 5487 5487 5486 5483 5481 5478 5478 5476 5474 5473 5471 5469 5468 5466 5463 5461 5460 5458 5456 5454 5453 5451 5449 5448 5447 5445 5444 5442 5441 5440 5438 5436
5461 5465 5468 5472 5473 5473 5477 5483 5483 5483 5485 5487 5488 5490 5491 5491 5491 5489 5488 5487 5485 5484 5484 5483 5481 5479 5477 5475 5472 5471 5469 5467 5466 5465 5463 5462 5460 5457 5455 5453 5451 5449 5447 5446 5444 5443 5441 5439 5437 5436 5434 5432 5430 5428
5460 5463 5466 5469 5473 5477 5478 5478 5480 5482 5484 5486 5488 5488 5487 5486 5486 5484 5483 5482 5480 5480 5479 5477 5477 5474 5471 5469 5466 5464 5462 5461 5458 5456 5454 5453 5451 5449 5448 5445 5443 5441 5439 5437 5436 5434 5432 5429 5428 5426 5424 5422 5420 5418
5465 5468 5470 5471 5472 5474 5476 5479 5482 5485 5484 5484 5483 5482 5482 5482 5482 5478 5478 5478 5477 5476 5475 5473 5471 5468 5465 5463 5460 5457 5455 5453 5450 5447 5445 5443 5441 5438 5436 5435 5433 5430 5429 5427 5425 5423 5421 5418 5416 5413 5411 5409 5408 5406
5468 5470 5471 5472 5473 5475 5476 5477 5477 5478 5478 5479 5479 5478 5478 5478 5477 5476 5476 5475 5474 5472 5470 5468 5466 5463 5460 5457 5454 5451 5449 5446 5443 5441 5439 5437 5436 5435 5431 5429 5425 5421 5417 5415 5412 5410 5407 5404 5402 5398 5396 5394 5392 5390
5465 5466 5467 5469 5470 5470 5471 5473 5475 5476 5478 5479 5478 5477 5477 5476 5475 5473 5472 5471 5469 5467 5465 5462 5460 5458 5455 5452 5449 5446 5442 5440 5437 5435 5433 5430 5429 5426 5421 5417 5414 5410 5406 5403 5399 5395 5392 5388 5385 5382 5379 5376 5375 5374
5466 5468 5469 5470 5472 5473 5475 5476 5477 5478 5477 5477 5476 5475 5474 5473 5471 5470 5468 5466 5465 5462 5460 5458 5455 5452 5450 5446 5444 5439 5435 5433 5431 5428 5425 5421 5417 5413 5410 5406 5402 5396 5390 5385 5381 5377 5374 5370 5367 5365 5362 5358 5357 5356
5469 5471 5471 5472 5472 5473 5473 5474 5474 5473 5473 5473 5472 5472 5471 5469 5468 5466 5464 5462 5460 5457 5455 5452 5449 5446 5443 5439 5436 5432 5429 5426 5422 5417 5413 5409 5404 5399 5395 5389 5385 5379 5374 5369 5364 5359 5355 5351 5347 5344 5341 5339 5338 5336
5469 5470 5470 5470 5470 5470 5470 5470 5470 5469 5469 5469 5468 5468 5467 5466 5464 5462 5460 5457 5455 5452 5449 5446 5443 5440 5435 5431 5427 5424 5418 5414 5410 5404 5399 5393 5387 5382 5376 5371 5365 5358 5353 5348 5343 5337 5333 5328 5325 5322 5319 5318 5317 5315
5470 5470 5469 5469 5469 5468 5468 5468 5467 5466 5466 5465 5465 5464 5463 5461 5460 5458 5455 5453 5450 5446 5443 5439 5435 5432 5428 5424 5418 5413 5408 5403 5397 5392 5385 5378 5369 5362 5356 5350 5344 5338 5332 5327 5321 5316 5312 5307 5303 5300 5299 5296 5295 5293
5469 5469 5468 5468 5467 5466 5466 5465 5464 5463 5463 5462 5461 5460 5459 5457 5455 5453 5450 5448 5445 5441 5438 5434 5430 5425 5420 5415 5409 5403 5397 5392 5385 5379 5371 5362 5353 5344 5336 5328 5323 5317 5311 5305 5300 5294 5290 5286 5281 5277 5274 5273 5271 5269
5469 5468 5467 5466 5465 5464 5463 5462 5461 5461 5459 5458 5457 5456 5455 5453 5450 5448 5444 5441 5438 5435 5430 5426 5422 5416 5411 5405 5399 5393 5387 5379 5371 5363 5354 5346 5337 5327 5319 5311 5304 5296 5290 5283 5277 5272 5266 5260 5256 5253 5248 5246 5244 5242
5467 5466 5465 5464 5463 5462 5461 5460 5458 5457 5456 5455 5453 5452 5450 5448 5445 5442 5439 5435 5431 5427 5424 5419 5413 5407 5401 5395 5388 5382 5375 5367 5358 5348 5338 5328 5319 5311 5302 5292 5283 5275 5267 5259 5252 5247 5243 5237 5232 5228 5224 5221 5219 5217
5465 5464 5463 5462 5461 5459 5459 5457 5455 5454 5452 5451 5449 5447 5446 5444 5441 5438 5435 5431 5427 5421 5416 5411 5405 5399 5392 5384 5377 5370 5361 5352 5343 5333 5323 5312 5302 5290 5280 5269 5260 5252 5247 5241 5235 5229 5224 5219 5214 5209 5205 5202 5199 5197
5463 5462 5461 5460 5459 5457 5456 5454 5452 5450 5449 5447 5445 5443 5441 5438 5436 5432 5429 5425 5421 5416 5411 5404 5398 5390 5383 5374 5365 5358 5349 5339 5326 5314 5303 5293 5282 5271 5261 5253 5245 5238 5232 5228 5222 5217 5212 5207 5203 5198 5192 5187 5183 5180
5462 5461 5459 5457 5456 5455 5453 5451 5450 5448 5446 5444 5441 5439 5436 5433 5430 5427 5423 5420 5415 5410 5404 5397 5390 5382 5373 5364 5353 5344 5333 5323 5312 5300 5288 5277 5266 5258 5250 5243 5236 5228 5223 5218 5213 5207 5202 5198 5193 5189 5184 5179 5175 5171
5458 5457 5456 5454 5453 5452 5450 5448 5447 5445 5443 5440 5438 5435 5432 5429 5425 5421 5417 5413 5408 5403 5397 5390 5382 5373 5363 5354 5343 5331 5321 5310 5298 5286 5274 5262 5254 5248 5242 5235 5229 5222 5215 5210 5205 5200 5195 5191 5187 5182 5178 5174 5170 5167
5454 5454 5452 5452 5450 5449 5447 5445 5444 5442 5440 5437 5434 5431 5428 5424 5421 5417 5412 5407 5402 5396 5390 5383 5374 5364 5353 5342 5332 5321 5311 5299 5287 5275 5263 5253 5247 5241 5233 5227 5222 5217 5211 5206 5201 5196 5191 5187 5183 5179 5175 5170 5167 5164
5449 5448 5448 5447 5446 5445 5443 5441 5439 5438 5436 5433 5430 5426 5423 5419 5416 5411 5406 5401 5395 5389 5383 5375 5365 5355 5344 5334 5324 5314 5303 5291 5278 5266 5255 5247 5240 5234 5226 5221 5215 5210 5206 5201 5197 5192 5188 5184 5180 5177 5173 5169 5166 5162
5443 5443 5442 5442 5441 5440 5439 5437 5434 5432 5431 5429 5426 5422 5419 5415 5410 5406 5401 5396 5390 5384 5377 5370 5362 5352 5341 5329 5318 5307 5296 5284 5272 5260 5252 5245 5237 5230 5224 5218 5212 5207 5202 5198 5194 5190 5187 5183 5180 5177 5174 5171 5168 5165
5434 5435 5435 5435 5434 5433 5433 5432 5429 5427 5425 5423 5421 5418 5414 5410 5405 5400 5396 5390 5385 5378 5372 5363 5355 5346 5335 5324 5313 5303 5292 5279 5267 5257 5250 5242 5235 5229 5222 5216 5210 5206 5201 5197 5194 5190 5187 5184 5182 5179 5177 5174 5172 5169
5426 5426 5427 5427 5426 5426 5426 5424 5423 5421 5418 5416 5414 5412 5408 5405 5400 5395 5390 5385 5379 5373 5367 5359 5350 5340 5329 5318 5307 5297 5287 5275 5263 5253 5246 5239 5233 5227 5221 5215 5210 5206 5202 5199 5195 5192 5189 5187 5185 5182 5180 5178 5176 5174
5416 5417 5417 5418 5419 5417 5418 5417 5416 5414 5412 5409 5407 5405 5402 5399 5395 5390 5385 5379 5374 5368 5362 5355 5347 5337 5327 5315 5305 5294 5283 5271 5260 5252 5245 5239 5233 5227 5222 5217 5213 5209 5205 5202 5198 5195 5193 5190 5188 5186 5185 5183 5181 5179
5407 5408 5408 5409 5409 5409 5409 5410 5408 5407 5405 5402 5399 5397 5395 5392 5389 5385 5380 5374 5369 5363 5357 5351 5343 5334 5324 5313 5303 5293 5283 5272 5260 5252 5246 5240 5234 5229 5224 5220 5217 5213 5210 5207 5203 5200 5198 5195 5193 5191 5189 5188 5186 5185